Date String (YYYY-MM-DD hh:mm:ss) UTC,Instrument flags,absolute air pressure of the measurement (hPa),sample flow rate (lpm),inlet stack bypass flow (lpm),air temperature of the measurement (°C),ambient temperature measured by the external sensor (°C),aerosol sample conditioner tube jacket temperature (°C),OPC LED temperature (°C),internal box temperature (°C),relative humidity of the measurement (%),span deviation,mass concentration of particles derived from Lorenz-Mie calculation of OPC scattering (μg/m³),mass concentration of particles derived from Lorenz-Mie calculation of OPC scattering (μg/m³),mass concentration of particles derived from Lorenz-Mie calculation of OPC scattering (μg/m³)
DateTimeUTC,F1_M11,P_M11,Q1_M11,Q2_M11,T1_M11,T2_M11,T3_M11,T4_M11,T5_M11,U1_M11,ZSPAN_M11,X0_M11,X2_M11,X1_M11
2024-05-14 05:00:00,SystemResetWarning,0825.8,5.00,000.00,024.4,023.2,000.0,032.7,026.1,020.9,0000.0,0005.77,0003.31,0002.96
2024-05-14 05:01:00,SystemResetWarning,0825.8,5.00,000.00,024.4,023.4,000.0,032.7,026.2,021.0,0000.0,0005.56,0003.30,0002.98
2024-05-14 05:02:00,SystemResetWarning,0825.8,4.99,000.00,024.5,023.6,000.0,032.7,026.3,021.1,0000.0,0004.86,0003.28,0002.97
2024-05-14 05:03:00,SystemResetWarning,0825.8,4.99,000.00,024.5,023.8,000.0,032.7,026.3,020.8,0000.0,0004.80,0003.27,0002.99
2024-05-14 05:04:00,SystemResetWarning,0825.8,5.01,000.00,024.6,023.9,000.0,032.7,026.4,020.7,0000.0,0004.69,0003.27,0003.01
2024-05-14 05:05:00,SystemResetWarning,0825.8,5.01,000.00,024.6,024.0,000.0,032.7,026.4,020.7,0000.0,0004.66,0003.28,0003.03
2024-05-14 05:06:00,SystemResetWarning,0825.8,5.00,000.00,024.7,024.1,000.0,032.7,026.5,020.8,0000.0,0004.78,0003.28,0003.03
2024-05-14 05:07:00,SystemResetWarning,0825.8,4.99,000.00,024.7,024.2,000.0,032.8,026.6,020.8,0000.0,0004.94,0003.27,0003.03
2024-05-14 05:08:00,SystemResetWarning,0825.8,4.99,000.00,024.8,024.3,000.0,032.8,026.6,020.6,0000.0,0004.85,0003.23,0003.00
2024-05-14 05:09:00,SystemResetWarning,0825.8,5.00,000.00,024.9,024.4,000.0,032.8,026.7,020.3,0000.0,0005.10,0003.25,0002.99
2024-05-14 05:10:00,SystemResetWarning,0825.8,5.00,000.00,024.9,024.4,000.0,032.9,026.7,020.2,0000.0,0005.22,0003.27,0002.98
2024-05-14 05:11:00,SystemResetWarning,0825.8,5.00,000.00,025.0,024.5,000.0,032.9,026.8,020.3,0000.0,0005.12,0003.26,0002.97
2024-05-14 05:12:00,SystemResetWarning,0825.8,5.00,000.00,025.0,024.6,000.0,032.9,026.8,020.0,0000.0,0005.03,0003.26,0002.94
2024-05-14 05:13:00,SystemResetWarning,0825.8,5.01,000.00,025.0,024.6,000.0,033.0,026.8,019.9,0000.0,0005.07,0003.26,0002.93
2024-05-14 05:14:00,SystemResetWarning,0825.8,4.98,000.00,024.9,023.0,000.0,033.1,026.0,019.8,0000.0,0005.04,0003.27,0002.93
2024-05-14 05:15:00,SystemResetWarning,0825.7,5.02,000.00,024.5,021.5,000.0,033.1,025.3,020.4,0000.0,0005.04,0003.27,0002.91
2024-05-14 05:16:00,SystemResetWarning,0825.7,5.01,000.00,024.3,021.7,000.0,033.0,025.2,020.5,0000.0,0006.02,0003.27,0002.90
2024-05-14 05:17:00,SystemResetWarning,0825.7,4.99,000.00,024.3,022.1,000.0,032.9,025.4,020.7,0000.0,0006.01,0003.26,0002.87
2024-05-14 05:18:00,SystemResetWarning,0825.8,5.00,000.00,024.3,022.4,000.0,032.8,025.6,020.8,0000.0,0005.72,0003.25,0002.87
2024-05-14 05:19:00,SystemResetWarning,0825.8,4.99,000.00,024.3,022.8,000.0,032.7,025.9,021.0,0000.0,0005.69,0003.25,0002.88
2024-05-14 05:20:00,SystemResetWarning,0825.8,5.00,000.00,024.4,023.1,000.0,032.7,026.0,020.9,0000.0,0005.50,0003.25,0002.90
2024-05-14 05:21:00,SystemResetWarning,0825.7,5.00,000.00,024.4,023.3,000.0,032.7,026.1,020.8,0000.0,0005.53,0003.25,0002.88
2024-05-14 05:22:00,SystemResetWarning,0825.8,5.00,000.00,024.5,023.5,000.0,032.7,026.2,020.4,0000.0,0005.60,0003.26,0002.89
2024-05-14 05:23:00,SystemResetWarning,0825.8,4.99,000.00,024.5,023.7,000.0,032.7,026.3,020.3,0000.0,0005.77,0003.28,0002.90
2024-05-14 05:24:00,SystemResetWarning,0825.8,4.99,000.00,024.6,023.8,000.0,032.7,026.3,020.4,0000.0,0006.37,0003.27,0002.89
2024-05-14 05:25:00,SystemResetWarning,0825.8,4.99,000.00,024.6,024.0,000.0,032.7,026.4,020.2,0000.0,0006.50,0003.27,0002.89
2024-05-14 05:26:00,SystemResetWarning,0825.8,5.00,000.00,024.7,024.1,000.0,032.7,026.5,020.2,0000.0,0006.46,0003.25,0002.87
2024-05-14 05:27:00,SystemResetWarning,0825.8,5.00,000.00,024.7,024.2,000.0,032.8,026.6,020.2,0000.0,0005.52,0003.24,0002.86
2024-05-14 05:28:00,SystemResetWarning,0825.8,5.00,000.00,024.8,024.3,000.0,032.8,026.6,020.3,0000.0,0005.46,0003.25,0002.86
2024-05-14 05:29:00,SystemResetWarning,0825.8,5.00,000.00,024.8,024.3,000.0,032.8,026.7,020.2,0000.0,0005.42,0003.26,0002.86
2024-05-14 05:30:00,SystemResetWarning,0825.8,5.00,000.00,024.9,024.4,000.0,032.8,026.7,020.1,0000.0,0005.46,0003.27,0002.85
2024-05-14 05:31:00,SystemResetWarning,0825.8,5.01,000.00,024.9,024.5,000.0,032.9,026.7,019.8,0000.0,0005.45,0003.24,0002.82
2024-05-14 05:32:00,SystemResetWarning,0825.7,5.01,000.00,025.0,024.5,000.0,032.9,026.8,019.7,0000.0,0005.39,0003.23,0002.82
2024-05-14 05:33:00,SystemResetWarning,0825.7,5.00,000.00,025.0,024.6,000.0,033.0,026.8,019.5,0000.0,0005.35,0003.22,0002.81
2024-05-14 05:34:00,SystemResetWarning,0825.7,5.00,000.00,025.1,024.6,000.0,033.0,026.8,019.4,0000.0,0005.16,0003.21,0002.82
2024-05-14 05:35:00,SystemResetWarning,0825.7,4.99,000.00,025.1,024.6,000.0,033.0,026.9,018.6,0000.0,0004.50,0003.19,0002.81
2024-05-14 05:36:00,SystemResetWarning,0825.7,5.00,000.00,025.1,024.6,000.0,033.1,026.9,018.9,0000.0,0004.31,0003.17,0002.80
2024-05-14 05:37:00,SystemResetWarning,0825.6,5.00,000.00,024.9,022.9,000.0,033.2,026.0,019.6,0000.0,0004.33,0003.18,0002.79
2024-05-14 05:38:00,SystemResetWarning,0825.6,5.01,000.00,024.5,021.6,000.0,033.2,025.2,020.2,0000.0,0004.22,0003.15,0002.78
2024-05-14 05:39:00,SystemResetWarning,0825.6,5.01,000.00,024.3,021.7,000.0,033.1,025.2,020.3,0000.0,0004.22,0003.15,0002.77
2024-05-14 05:40:00,SystemResetWarning,0825.7,4.98,000.00,024.3,022.1,000.0,033.0,025.4,020.8,0000.0,0004.33,0003.18,0002.77
2024-05-14 05:41:00,SystemResetWarning,0825.7,5.01,000.00,024.3,022.5,000.0,032.9,025.7,021.3,0000.0,0004.38,0003.19,0002.79
2024-05-14 05:42:00,SystemResetWarning,0825.7,5.02,000.00,024.4,022.8,000.0,032.8,025.9,021.2,0000.0,0004.39,0003.21,0002.81
2024-05-14 05:43:00,SystemResetWarning,0825.8,4.99,000.00,024.4,023.1,000.0,032.8,026.0,021.6,0000.0,0004.30,0003.22,0002.82
2024-05-14 05:44:00,SystemResetWarning,0825.8,4.99,000.00,024.4,023.3,000.0,032.7,026.1,021.5,0000.0,0004.30,0003.21,0002.83
2024-05-14 05:45:00,SystemResetWarning,0825.8,5.00,000.00,024.5,023.5,000.0,032.7,026.2,021.4,0000.0,0004.49,0003.24,0002.85
2024-05-14 05:46:00,SystemResetWarning,0825.8,5.00,000.00,024.5,023.7,000.0,032.7,026.3,020.7,0000.0,0004.60,0003.26,0002.87
2024-05-14 05:47:00,SystemResetWarning,0825.7,5.00,000.00,024.6,023.8,000.0,032.8,026.4,019.6,0000.0,0004.63,0003.26,0002.87
2024-05-14 05:48:00,SystemResetWarning,0825.8,5.00,000.00,024.6,024.0,000.0,032.8,026.4,020.3,0000.0,0004.72,0003.27,0002.88
2024-05-14 05:49:00,SystemResetWarning,0825.8,5.00,000.00,024.7,024.1,000.0,032.8,026.5,019.7,0000.0,0004.86,0003.29,0002.89
2024-05-14 05:50:00,SystemResetWarning,0825.7,5.00,000.00,024.7,024.2,000.0,032.8,026.6,019.3,0000.0,0005.69,0003.28,0002.89
2024-05-14 05:51:00,SystemResetWarning,0825.7,5.01,000.00,024.8,024.3,000.0,032.8,026.6,019.2,0000.0,0006.78,0003.26,0002.89
2024-05-14 05:52:00,SystemResetWarning,0825.8,5.00,000.00,024.8,024.3,000.0,032.8,026.6,019.1,0000.0,0006.98,0003.24,0002.88
2024-05-14 05:53:00,SystemResetWarning,0825.8,4.99,000.00,024.9,024.4,000.0,032.9,026.7,019.8,0000.0,0006.97,0003.24,0002.88
2024-05-14 05:54:00,SystemResetWarning,0825.8,5.00,000.00,024.9,024.5,000.0,032.9,026.7,020.3,0000.0,0006.86,0003.21,0002.87
2024-05-14 05:55:00,SystemResetWarning,0825.8,5.00,000.00,025.0,024.5,000.0,033.0,026.8,019.5,0000.0,0007.44,0003.24,0002.88
2024-05-14 05:56:00,SystemResetWarning,0825.8,5.00,000.00,025.0,024.6,000.0,033.0,026.8,019.1,0000.0,0007.34,0003.20,0002.86
2024-05-14 05:57:00,SystemResetWarning,0825.9,5.00,000.00,025.1,024.6,000.0,033.0,026.9,018.9,0000.0,0007.30,0003.19,0002.85
2024-05-14 05:58:00,SystemResetWarning,0825.9,5.00,000.00,025.1,024.7,000.0,033.1,026.9,018.6,0000.0,0007.29,0003.19,0002.85
2024-05-14 05:59:00,SystemResetWarning,0825.9,4.99,000.00,025.1,024.7,000.0,033.1,026.9,018.4,0000.0,0007.28,0003.20,0002.86
